Погода в Викулове

Россия / Тюменская область     56°48′56″N   70°36′17″E
темп.,
°C
ветер,
м/с
пор.,
м/с
влажн.,
%
обл.,
%
осадки,
мм/ч
давл.,
гПа
погр.,
м
20 января, ср
ср2023:00−28в12940 0.0 102719
02:00−26вюв239045 0.0 102725
05:00−24вюв358973 0.0 1027101
08:00−23вюв3789100 0.0 1025220
11:00−21вюв5987100 0.0 1023313
14:00−19вюв61087100 0.0 1020377
17:00−19вюв61394100 1.1 1018474
20:00−18юв61295100 1.3 1015634
21 января, чт
чт2123:00−18юв51195100 1.5 1013434
02:00−18ююв5996100 0.3 1012293
05:00−16юз61192100 0.4 1011535
08:00−18ююз61194100 0.1 1011341
11:00−19юз61194100 0.1 1011392
14:00−19юз5993100 0.0 1012431
17:00−20юз5996100 0.1 1012350
20:00−23юз489683 0.0 1012160
22 января, пт
пт2223:00−26зюз349886 0.1 101374
02:00−27зюз339860 0.0 101334
05:00−27зюз339850 0.0 101341
08:00−26зюз239892 0.1 101346
11:00−23зюз249795 0.1 1014189
14:00−22з2496100 0.1 1015282
17:00−23з2398100 0.2 101636
20:00−24сз239897 0.1 101833
23 января, сб
сб2323:00−27сз239895 0.1 102037
02:00−29сз349784 0.0 102390
05:00−33сз339768 0.1 102526
08:00−34ссз33971 0.0 102822
11:00−32ссз23960 0.0 1030124
14:00−30сз24930 0.0 1031283
17:00−33сз23960 0.0 103319
20:00−35сз229776 0.0 103519
24 января, вс
вс2423:00−35зсз119686 0.0 103519
02:00−34зсз0195100 0.0 103619
05:00−33ююв1194100 0.0 103619
08:00−33юв229498 0.0 103719
11:00−31вюв239458 0.0 1037107
14:00−29вюв239419 0.0 1036240
17:00−32вюв349514 0.0 103740
20:00−31вюв379464 0.0 1037174